Time,TemperatureF,DewpointF,PressureIn,WindDirection,WindDirectionDegrees,WindSpeedMPH,WindSpeedGustMPH,Humidity,HourlyPrecipIn,Conditions,Clouds,dailyrainin,SoftwareType,DateUTC
2013-01-05 00:00:00,33.3,13.7,29.77,SW,230,3.5,0.0,44,0.00,CLR,,0.00,WeatherDisplay:10.37,2013-01-05 05:00:00,
2013-01-05 00:02:00,33.3,13.7,29.77,SW,230,2.3,0.0,44,0.00,CLR,,0.00,WeatherDisplay:10.37,2013-01-05 05:02:00,
2013-01-05 00:07:00,32.9,13.3,29.77,West,272,3.5,3.5,44,0.00,CLR,,0.00,WeatherDisplay:10.37,2013-01-05 05:07:00,
2013-01-05 00:12:00,32.7,13.7,29.77,SW,230,2.3,0.0,45,0.00,CLR,,0.00,WeatherDisplay:10.37,2013-01-05 05:12:00,
2013-01-05 00:17:00,32.7,13.7,29.77,WSW,254,0.0,0.0,45,0.00,CLR,,0.00,WeatherDisplay:10.37,2013-01-05 05:17:00,
2013-01-05 00:22:00,32.5,13.5,29.77,SW,234,2.3,0.0,45,0.00,CLR,,0.00,WeatherDisplay:10.37,2013-01-05 05:22:00,
2013-01-05 00:27:00,32.4,13.9,29.77,SW,234,2.3,0.0,46,0.00,CLR,,0.00,WeatherDisplay:10.37,2013-01-05 05:27:00,
2013-01-05 00:32:00,32.4,13.9,29.77,WSW,241,2.3,0.0,46,0.00,CLR,,0.00,WeatherDisplay:10.37,2013-01-05 05:32:00,
2013-01-05 00:37:00,32.2,13.7,29.77,SW,230,0.0,0.0,46,0.00,CLR,,0.00,WeatherDisplay:10.37,2013-01-05 05:37:00,
2013-01-05 00:42:00,32.2,14.2,29.77,West,271,3.5,0.0,47,0.00,CLR,,0.00,WeatherDisplay:10.37,2013-01-05 05:42:00,
2013-01-05 00:47:00,32.2,14.2,29.77,SSW,213,3.5,0.0,47,0.00,CLR,,0.00,WeatherDisplay:10.37,2013-01-05 05:47:00,
2013-01-05 00:52:00,32.0,14.0,29.77,West,267,3.5,0.0,47,0.00,CLR,,0.00,WeatherDisplay:10.37,2013-01-05 05:52:00,
2013-01-05 00:57:00,31.8,14.3,29.77,WSW,248,2.3,0.0,48,0.00,CLR,,0.00,WeatherDisplay:10.37,2013-01-05 05:57:00,
2013-01-05 01:02:00,31.8,14.3,29.77,NW,316,0.0,0.0,48,0.00,CLR,,0.00,WeatherDisplay:10.37,2013-01-05 06:02:00,
2013-01-05 01:07:00,31.5,14.0,29.77,SSW,205,5.8,0.0,48,0.00,CLR,,0.00,WeatherDisplay:10.37,2013-01-05 06:07:00,
2013-01-05 01:12:00,31.3,13.8,29.77,SW,229,0.0,0.0,48,0.00,CLR,,0.00,WeatherDisplay:10.37,2013-01-05 06:12:00,
2013-01-05 01:17:00,31.3,14.8,29.77,WSW,240,3.5,0.0,50,0.00,CLR,,0.00,WeatherDisplay:10.37,2013-01-05 06:17:00,
2013-01-05 01:22:00,31.3,14.8,29.77,WSW,244,0.0,0.0,50,0.00,CLR,,0.00,WeatherDisplay:10.37,2013-01-05 06:22:00,
2013-01-05 01:27:00,31.1,14.6,29.77,WSW,244,0.0,0.0,50,0.00,CLR,,0.00,WeatherDisplay:10.37,2013-01-05 06:27:00,
2013-01-05 01:32:00,31.1,14.6,29.77,WSW,245,2.3,0.0,50,0.00,CLR,,0.00,WeatherDisplay:10.37,2013-01-05 06:32:00,
2013-01-05 01:37:00,31.3,14.8,29.77,WSW,242,0.0,0.0,50,0.00,CLR,,0.00,WeatherDisplay:10.37,2013-01-05 06:37:00,
2013-01-05 01:42:00,31.6,15.1,29.77,WSW,242,0.0,0.0,50,0.00,CLR,,0.00,WeatherDisplay:10.37,2013-01-05 06:42:00,
2013-01-05 01:47:00,31.8,14.3,29.77,West,271,2.3,0.0,48,0.00,CLR,,0.00,WeatherDisplay:10.37,2013-01-05 06:47:00,
2013-01-05 01:52:00,32.2,14.2,29.77,WSW,248,2.3,0.0,47,0.00,CLR,,0.00,WeatherDisplay:10.37,2013-01-05 06:52:00,
2013-01-05 01:57:00,32.2,14.2,29.77,West,268,3.5,0.0,47,0.00,CLR,,0.00,WeatherDisplay:10.37,2013-01-05 06:57:00,
2013-01-05 02:02:00,32.2,14.2,29.77,WSW,245,4.6,4.6,47,0.00,CLR,,0.00,WeatherDisplay:10.37,2013-01-05 07:02:00,
2013-01-05 02:07:00,31.8,13.9,29.80,WSW,255,0.0,0.0,47,0.00,CLR,,0.00,WeatherDisplay:10.37,2013-01-05 07:07:00,
2013-01-05 02:12:00,31.8,13.9,29.80,WSW,251,3.5,0.0,47,0.00,CLR,,0.00,WeatherDisplay:10.37,2013-01-05 07:12:00,
2013-01-05 02:17:00,32.0,13.5,29.80,WSW,246,4.6,4.6,46,0.00,CLR,,0.00,WeatherDisplay:10.37,2013-01-05 07:17:00,
2013-01-05 02:22:00,32.4,13.4,29.80,West,264,2.3,0.0,45,0.00,CLR,,0.00,WeatherDisplay:10.37,2013-01-05 07:22:00,
2013-01-05 02:27:00,32.2,13.2,29.80,West,271,3.5,0.0,45,0.00,CLR,,0.00,WeatherDisplay:10.37,2013-01-05 07:27:00,
2013-01-05 02:32:00,31.8,13.4,29.80,SW,233,3.5,0.0,46,0.00,CLR,,0.00,WeatherDisplay:10.37,2013-01-05 07:32:00,
2013-01-05 02:37:00,31.8,13.4,29.80,SW,224,0.0,0.0,46,0.00,CLR,,0.00,WeatherDisplay:10.37,2013-01-05 07:37:00,
2013-01-05 02:42:00,32.2,13.2,29.80,West,277,3.6,0.0,45,0.00,CLR,,0.00,WeatherDisplay:10.37,2013-01-05 07:42:00,
2013-01-05 02:47:00,32.2,12.7,29.80,West,261,5.8,5.8,44,0.00,CLR,,0.00,WeatherDisplay:10.37,2013-01-05 07:47:00,
2013-01-05 02:52:00,32.2,12.7,29.80,West,268,3.5,3.5,44,0.00,CLR,,0.00,WeatherDisplay:10.37,2013-01-05 07:52:00,
2013-01-05 02:57:00,32.2,12.7,29.80,West,262,4.6,4.6,44,0.00,CLR,,0.00,WeatherDisplay:10.37,2013-01-05 07:57:00,
2013-01-05 03:02:00,32.2,12.7,29.80,West,279,2.3,0.0,44,0.00,CLR,,0.00,WeatherDisplay:10.37,2013-01-05 08:02:00,
2013-01-05 03:07:00,32.2,12.7,29.83,North,357,3.5,0.0,44,0.00,CLR,,0.00,WeatherDisplay:10.37,2013-01-05 08:07:00,
2013-01-05 03:12:00,32.2,12.7,29.83,SW,231,0.0,0.0,44,0.00,CLR,,0.00,WeatherDisplay:10.37,2013-01-05 08:12:00,
2013-01-05 03:17:00,32.0,12.5,29.83,WNW,288,0.0,0.0,44,0.00,CLR,,0.00,WeatherDisplay:10.37,2013-01-05 08:17:00,
2013-01-05 03:22:00,32.0,12.5,29.83,WNW,287,3.5,3.5,44,0.00,CLR,,0.00,WeatherDisplay:10.37,2013-01-05 08:22:00,
2013-01-05 03:27:00,32.2,12.7,29.83,West,274,0.0,0.0,44,0.00,CLR,,0.00,WeatherDisplay:10.37,2013-01-05 08:27:00,
2013-01-05 03:32:00,32.2,12.7,29.83,SW,225,3.5,0.0,44,0.00,CLR,,0.00,WeatherDisplay:10.37,2013-01-05 08:32:00,
2013-01-05 03:37:00,32.2,12.7,29.83,South,173,0.0,0.0,44,0.00,CLR,,0.00,WeatherDisplay:10.37,2013-01-05 08:37:00,
2013-01-05 03:42:00,32.0,12.5,29.83,WNW,284,3.6,0.0,44,0.00,CLR,,0.00,WeatherDisplay:10.37,2013-01-05 08:42:00,
2013-01-05 03:47:00,32.0,12.5,29.83,WSW,238,0.0,0.0,44,0.00,CLR,,0.00,WeatherDisplay:10.37,2013-01-05 08:47:00,
2013-01-05 03:52:00,31.8,12.4,29.83,WNW,283,0.0,0.0,44,0.00,CLR,,0.00,WeatherDisplay:10.37,2013-01-05 08:52:00,
2013-01-05 03:57:00,31.6,12.7,29.83,WSW,237,2.3,0.0,45,0.00,CLR,,0.00,WeatherDisplay:10.37,2013-01-05 08:57:00,
2013-01-05 04:02:00,31.3,12.4,29.83,SSW,210,0.0,0.0,45,0.00,CLR,,0.00,WeatherDisplay:10.37,2013-01-05 09:02:00,
2013-01-05 04:08:00,31.1,12.2,29.83,WSW,239,2.3,0.0,45,0.00,CLR,,0.00,WeatherDisplay:10.37,2013-01-05 09:08:00,
2013-01-05 04:13:00,30.9,12.5,29.83,WSW,245,4.6,0.0,46,0.00,CLR,,0.00,WeatherDisplay:10.37,2013-01-05 09:13:00,
2013-01-05 04:18:00,30.9,12.5,29.83,WSW,248,0.0,0.0,46,0.00,CLR,,0.00,WeatherDisplay:10.37,2013-01-05 09:18:00,
2013-01-05 04:23:00,31.3,12.9,29.83,SW,228,3.5,0.0,46,0.00,CLR,,0.00,WeatherDisplay:10.37,2013-01-05 09:23:00,
2013-01-05 04:28:00,31.5,12.5,29.83,SW,236,3.5,0.0,45,0.00,CLR,,0.00,WeatherDisplay:10.37,2013-01-05 09:28:00,
2013-01-05 04:33:00,31.6,12.7,29.83,WSW,245,2.7,0.0,45,0.00,CLR,,0.00,WeatherDisplay:10.37,2013-01-05 09:33:00,
2013-01-05 04:38:00,31.6,12.7,29.83,WSW,237,4.6,4.6,45,0.00,CLR,,0.00,WeatherDisplay:10.37,2013-01-05 09:38:00,
2013-01-05 04:43:00,31.6,12.7,29.83,SW,229,2.3,0.0,45,0.00,CLR,,0.00,WeatherDisplay:10.37,2013-01-05 09:43:00,
2013-01-05 04:48:00,32.0,12.5,29.83,WSW,246,3.5,0.0,44,0.00,CLR,,0.00,WeatherDisplay:10.37,2013-01-05 09:48:00,
2013-01-05 04:53:00,32.2,13.2,29.83,WSW,253,3.5,3.5,45,0.00,CLR,,0.00,WeatherDisplay:10.37,2013-01-05 09:53:00,
2013-01-05 04:58:00,32.2,13.2,29.83,WSW,249,2.3,0.0,45,0.00,CLR,,0.00,WeatherDisplay:10.37,2013-01-05 09:58:00,
2013-01-05 05:03:00,32.2,13.2,29.83,SW,229,3.5,3.5,45,0.00,CLR,,0.00,WeatherDisplay:10.37,2013-01-05 10:03:00,
2013-01-05 05:08:00,32.2,13.2,29.85,WSW,240,5.8,5.8,45,0.00,CLR,,0.00,WeatherDisplay:10.37,2013-01-05 10:08:00,
2013-01-05 05:13:00,32.2,13.2,29.85,WSW,242,4.6,0.0,45,0.00,CLR,,0.00,WeatherDisplay:10.37,2013-01-05 10:13:00,
2013-01-05 05:18:00,32.2,13.2,29.85,WSW,247,3.5,3.5,45,0.00,CLR,,0.00,WeatherDisplay:10.37,2013-01-05 10:18:00,
2013-01-05 05:23:00,32.2,12.7,29.85,WSW,248,2.3,0.0,44,0.00,CLR,,0.00,WeatherDisplay:10.37,2013-01-05 10:23:00,
2013-01-05 05:28:00,32.4,13.4,29.85,WSW,254,3.5,0.0,45,0.00,CLR,,0.00,WeatherDisplay:10.37,2013-01-05 10:28:00,
2013-01-05 05:33:00,32.4,13.4,29.85,WSW,240,5.8,5.8,45,0.00,CLR,,0.00,WeatherDisplay:10.37,2013-01-05 10:33:00,
2013-01-05 05:38:00,32.5,13.0,29.85,WSW,244,5.8,5.8,44,0.00,CLR,,0.00,WeatherDisplay:10.37,2013-01-05 10:38:00,
2013-01-05 05:43:00,32.7,13.2,29.85,SW,228,5.8,5.8,44,0.00,CLR,,0.00,WeatherDisplay:10.37,2013-01-05 10:43:00,
2013-01-05 05:48:00,32.9,13.3,29.85,SW,232,5.8,5.8,44,0.00,CLR,,0.00,WeatherDisplay:10.37,2013-01-05 10:48:00,
2013-01-05 05:53:00,32.9,13.3,29.88,South,173,2.3,0.0,44,0.00,CLR,,0.00,WeatherDisplay:10.37,2013-01-05 10:53:00,
2013-01-05 05:58:00,33.1,13.5,29.88,SW,225,4.6,4.6,44,0.00,CLR,,0.00,WeatherDisplay:10.37,2013-01-05 10:58:00,
2013-01-05 06:03:00,33.3,13.7,29.88,SW,234,8.1,8.1,44,0.00,CLR,,0.00,WeatherDisplay:10.37,2013-01-05 11:03:00,
2013-01-05 06:08:00,33.3,13.1,29.88,WSW,257,3.5,3.5,43,0.00,CLR,,0.00,WeatherDisplay:10.37,2013-01-05 11:08:00,
2013-01-05 06:13:00,33.3,13.1,29.88,SW,216,5.8,5.8,43,0.00,CLR,,0.00,WeatherDisplay:10.37,2013-01-05 11:13:00,
2013-01-05 06:18:00,33.4,13.3,29.88,WSW,256,3.5,0.0,43,0.00,CLR,,0.00,WeatherDisplay:10.37,2013-01-05 11:18:00,
2013-01-05 06:23:00,33.3,13.7,29.88,West,274,3.5,3.5,44,0.00,CLR,,0.00,WeatherDisplay:10.37,2013-01-05 11:23:00,
2013-01-05 06:28:00,33.1,13.5,29.88,SW,233,4.9,4.9,44,0.00,CLR,,0.00,WeatherDisplay:10.37,2013-01-05 11:28:00,
2013-01-05 06:33:00,33.3,13.7,29.88,WSW,240,5.8,5.8,44,0.00,CLR,,0.00,WeatherDisplay:10.37,2013-01-05 11:33:00,
2013-01-05 06:38:00,33.3,13.7,29.88,SW,232,3.5,0.0,44,0.00,CLR,,0.00,WeatherDisplay:10.37,2013-01-05 11:38:00,
2013-01-05 06:43:00,33.3,13.7,29.88,West,269,5.8,5.8,44,0.00,CLR,,0.00,WeatherDisplay:10.37,2013-01-05 11:43:00,
2013-01-05 06:48:00,33.3,13.7,29.88,WSW,253,8.1,8.1,44,0.00,CLR,,0.00,WeatherDisplay:10.37,2013-01-05 11:48:00,
2013-01-05 06:53:00,33.3,13.1,29.91,SW,227,3.5,0.0,43,0.00,CLR,,0.00,WeatherDisplay:10.37,2013-01-05 11:53:00,
2013-01-05 06:58:00,33.3,13.7,29.91,SW,232,3.5,3.5,44,0.00,CLR,,0.00,WeatherDisplay:10.37,2013-01-05 11:58:00,
2013-01-05 07:03:00,33.4,13.8,29.91,WSW,248,5.8,5.8,44,0.00,CLR,,0.00,WeatherDisplay:10.37,2013-01-05 12:03:00,
2013-01-05 07:08:00,33.4,13.8,29.91,WSW,244,8.1,8.1,44,0.00,CLR,,0.00,WeatherDisplay:10.37,2013-01-05 12:08:00,
2013-01-05 07:13:00,33.6,14.0,29.91,SW,223,5.8,5.8,44,0.00,CLR,,0.00,WeatherDisplay:10.37,2013-01-05 12:13:00,
2013-01-05 07:18:00,33.6,13.5,29.91,West,270,5.8,5.8,43,0.00,CLR,,0.00,WeatherDisplay:10.37,2013-01-05 12:18:00,
2013-01-05 07:23:00,33.6,13.5,29.91,WSW,241,2.3,0.0,43,0.00,CLR,,0.00,WeatherDisplay:10.37,2013-01-05 12:23:00,
2013-01-05 07:28:00,33.8,13.6,29.91,SW,235,3.5,3.6,43,0.00,CLR,,0.00,WeatherDisplay:10.37,2013-01-05 12:28:00,
2013-01-05 07:33:00,33.8,13.6,29.91,WSW,248,5.8,5.8,43,0.00,CLR,,0.00,WeatherDisplay:10.37,2013-01-05 12:33:00,
2013-01-05 07:38:00,34.0,13.8,29.91,SW,223,5.8,5.8,43,0.00,CLR,,0.00,WeatherDisplay:10.37,2013-01-05 12:38:00,
2013-01-05 07:43:00,34.3,13.6,29.91,West,264,5.8,0.0,42,0.00,CLR,,0.00,WeatherDisplay:10.37,2013-01-05 12:43:00,
2013-01-05 07:48:00,35.2,14.4,29.91,WSW,243,3.5,0.0,42,0.00,CLR,,0.00,WeatherDisplay:10.37,2013-01-05 12:48:00,
2013-01-05 07:53:00,35.8,14.3,29.94,SSW,207,3.5,3.5,41,0.00,CLR,,0.00,WeatherDisplay:10.37,2013-01-05 12:53:00,
2013-01-05 07:58:00,35.4,14.6,29.94,WSW,247,5.8,5.8,42,0.00,CLR,,0.00,WeatherDisplay:10.37,2013-01-05 12:58:00,
2013-01-05 08:04:00,36.0,14.5,29.94,SW,230,8.1,8.1,41,0.00,CLR,,0.00,WeatherDisplay:10.37,2013-01-05 13:04:00,
2013-01-05 08:09:00,36.7,15.2,29.94,West,276,3.5,0.0,41,0.00,CLR,,0.00,WeatherDisplay:10.37,2013-01-05 13:09:00,
2013-01-05 08:14:00,36.3,14.8,29.94,WSW,243,3.5,3.5,41,0.00,CLR,,0.00,WeatherDisplay:10.37,2013-01-05 13:14:00,
2013-01-05 08:19:00,39.0,16.7,29.94,WSW,255,5.8,5.8,40,0.00,CLR,,0.00,WeatherDisplay:10.37,2013-01-05 13:19:00,
2013-01-05 08:24:00,41.7,17.9,29.94,SSW,192,3.1,3.1,38,0.00,CLR,,0.00,WeatherDisplay:10.37,2013-01-05 13:24:00,
2013-01-05 08:29:00,44.1,18.1,29.94,SW,221,4.6,4.6,35,0.00,CLR,,0.00,WeatherDisplay:10.37,2013-01-05 13:29:00,
2013-01-05 08:34:00,44.8,17.4,29.94,West,259,5.8,5.8,33,0.00,CLR,,0.00,WeatherDisplay:10.37,2013-01-05 13:34:00,
2013-01-05 08:39:00,44.2,16.2,29.97,West,259,5.8,5.8,32,0.00,CLR,,0.00,WeatherDisplay:10.37,2013-01-05 13:39:00,
2013-01-05 08:44:00,42.4,14.6,29.97,WSW,254,8.1,8.1,32,0.00,CLR,,0.00,WeatherDisplay:10.37,2013-01-05 13:44:00,
2013-01-05 08:49:00,41.0,14.1,29.97,WSW,257,9.2,9.2,33,0.00,CLR,,0.00,WeatherDisplay:10.37,2013-01-05 13:49:00,
2013-01-05 08:54:00,39.7,14.3,29.97,WSW,247,5.8,5.8,35,0.00,CLR,,0.00,WeatherDisplay:10.37,2013-01-05 13:54:00,
2013-01-05 08:59:00,38.7,14.6,29.97,West,281,3.5,3.5,37,0.00,CLR,,0.00,WeatherDisplay:10.37,2013-01-05 13:59:00,
2013-01-05 09:04:00,38.7,15.2,29.97,West,269,4.6,4.6,38,0.00,CLR,,0.00,WeatherDisplay:10.37,2013-01-05 14:04:00,
2013-01-05 09:09:00,38.5,15.0,29.97,WSW,247,9.2,9.2,38,0.00,CLR,,0.00,WeatherDisplay:10.37,2013-01-05 14:09:00,
2013-01-05 09:14:00,38.3,14.9,29.97,SW,224,5.8,5.8,38,0.00,CLR,,0.00,WeatherDisplay:10.37,2013-01-05 14:14:00,
2013-01-05 09:19:00,38.7,15.8,29.97,West,264,2.3,0.0,39,0.00,CLR,,0.00,WeatherDisplay:10.37,2013-01-05 14:19:00,
2013-01-05 09:24:00,38.7,15.2,30.00,West,267,5.4,5.4,38,0.00,CLR,,0.00,WeatherDisplay:10.37,2013-01-05 14:24:00,
2013-01-05 09:29:00,38.8,16.0,30.00,WSW,247,5.8,5.8,39,0.00,CLR,,0.00,WeatherDisplay:10.37,2013-01-05 14:29:00,
2013-01-05 09:34:00,39.2,15.1,30.00,WSW,258,4.6,4.6,37,0.00,CLR,,0.00,WeatherDisplay:10.37,2013-01-05 14:34:00,
2013-01-05 09:39:00,39.7,16.2,30.00,WNW,292,2.3,0.0,38,0.00,CLR,,0.00,WeatherDisplay:10.37,2013-01-05 14:39:00,
2013-01-05 09:44:00,40.5,15.6,30.00,WNW,288,5.8,5.8,36,0.00,CLR,,0.00,WeatherDisplay:10.37,2013-01-05 14:44:00,
2013-01-05 09:49:00,40.6,15.7,30.00,West,269,5.8,5.8,36,0.00,CLR,,0.00,WeatherDisplay:10.37,2013-01-05 14:49:00,
2013-01-05 09:54:00,40.8,15.9,30.00,WSW,249,3.5,3.5,36,0.00,CLR,,0.00,WeatherDisplay:10.37,2013-01-05 14:54:00,
2013-01-05 09:59:00,40.1,14.6,30.00,WSW,257,8.1,8.1,35,0.00,CLR,,0.00,WeatherDisplay:10.37,2013-01-05 14:59:00,
2013-01-05 10:04:00,39.7,15.6,30.00,WSW,239,5.8,5.8,37,0.00,CLR,,0.00,WeatherDisplay:10.37,2013-01-05 15:04:00,
2013-01-05 10:09:00,39.7,15.6,30.00,WSW,243,3.6,3.6,37,0.00,CLR,,0.00,WeatherDisplay:10.37,2013-01-05 15:09:00,
2013-01-05 10:14:00,39.9,16.3,30.00,SW,234,4.6,4.6,38,0.00,CLR,,0.00,WeatherDisplay:10.37,2013-01-05 15:14:00,
2013-01-05 10:19:00,40.1,15.2,30.00,WSW,253,5.8,5.8,36,0.00,CLR,,0.00,WeatherDisplay:10.37,2013-01-05 15:19:00,
2013-01-05 10:24:00,40.3,15.4,30.00,WSW,243,5.8,5.8,36,0.00,CLR,,0.00,WeatherDisplay:10.37,2013-01-05 15:24:00,
2013-01-05 10:29:00,40.1,14.6,30.00,West,261,5.8,5.8,35,0.00,CLR,,0.00,WeatherDisplay:10.37,2013-01-05 15:29:00,
2013-01-05 10:34:00,39.9,14.4,30.00,WSW,249,4.6,0.0,35,0.00,CLR,,0.00,WeatherDisplay:10.37,2013-01-05 15:34:00,
2013-01-05 10:39:00,40.3,15.4,30.00,SSW,198,3.5,3.5,36,0.00,CLR,,0.00,WeatherDisplay:10.37,2013-01-05 15:39:00,
2013-01-05 10:44:00,40.5,14.9,30.00,WSW,242,4.6,4.6,35,0.00,CLR,,0.00,WeatherDisplay:10.37,2013-01-05 15:44:00,
2013-01-05 10:49:00,40.6,15.1,30.00,WSW,247,3.5,3.5,35,0.00,CLR,,0.00,WeatherDisplay:10.37,2013-01-05 15:49:00,
2013-01-05 10:54:00,41.0,14.7,30.00,West,265,4.6,4.6,34,0.00,CLR,,0.00,WeatherDisplay:10.37,2013-01-05 15:54:00,
2013-01-05 10:59:00,41.4,15.7,30.00,WNW,292,10.4,10.4,35,0.00,CLR,,0.00,WeatherDisplay:10.37,2013-01-05 15:59:00,
2013-01-05 11:04:00,41.5,15.2,30.00,West,268,5.8,5.8,34,0.00,CLR,,0.00,WeatherDisplay:10.37,2013-01-05 16:04:00,
2013-01-05 11:09:00,41.9,15.5,30.00,West,281,8.1,8.1,34,0.00,CLR,,0.00,WeatherDisplay:10.37,2013-01-05 16:09:00,
2013-01-05 11:14:00,42.1,15.7,30.00,West,259,3.5,3.5,34,0.00,CLR,,0.00,WeatherDisplay:10.37,2013-01-05 16:14:00,
2013-01-05 11:19:00,42.3,15.2,30.00,West,277,3.5,3.5,33,0.00,CLR,,0.00,WeatherDisplay:10.37,2013-01-05 16:19:00,
2013-01-05 11:24:00,42.3,15.2,30.00,NW,309,9.2,9.2,33,0.00,CLR,,0.00,WeatherDisplay:10.37,2013-01-05 16:24:00,
2013-01-05 11:29:00,42.3,14.5,30.00,WSW,257,8.1,8.1,32,0.00,CLR,,0.00,WeatherDisplay:10.37,2013-01-05 16:29:00,
2013-01-05 11:34:00,42.1,14.3,30.00,SW,229,8.1,8.1,32,0.00,CLR,,0.00,WeatherDisplay:10.37,2013-01-05 16:34:00,
2013-01-05 11:39:00,42.1,14.3,30.00,West,260,8.1,8.1,32,0.00,CLR,,0.00,WeatherDisplay:10.37,2013-01-05 16:39:00,
2013-01-05 11:44:00,41.9,13.4,30.00,NW,308,5.8,5.8,31,0.00,CLR,,0.00,WeatherDisplay:10.37,2013-01-05 16:44:00,
2013-01-05 11:49:00,41.7,13.3,30.00,West,266,8.1,8.1,31,0.00,CLR,,0.00,WeatherDisplay:10.37,2013-01-05 16:49:00,
2013-01-05 11:54:00,41.7,13.3,30.00,WSW,243,8.1,8.1,31,0.00,CLR,,0.00,WeatherDisplay:10.37,2013-01-05 16:54:00,
2013-01-05 11:59:00,41.9,14.1,30.00,WNW,295,7.6,7.6,32,0.00,CLR,,0.00,WeatherDisplay:10.37,2013-01-05 16:59:00,
2013-01-05 12:04:00,42.1,14.3,30.00,West,268,8.1,8.1,32,0.00,CLR,,0.00,WeatherDisplay:10.37,2013-01-05 17:04:00,
2013-01-05 12:09:00,42.3,14.5,30.00,WSW,250,11.5,11.5,32,0.00,CLR,,0.00,WeatherDisplay:10.37,2013-01-05 17:09:00,
2013-01-05 12:14:00,42.4,14.6,30.00,WNW,294,12.7,12.7,32,0.00,CLR,,0.00,WeatherDisplay:10.37,2013-01-05 17:14:00,
2013-01-05 12:19:00,42.6,14.8,30.00,West,262,6.9,6.9,32,0.00,CLR,,0.00,WeatherDisplay:10.37,2013-01-05 17:19:00,
2013-01-05 12:24:00,42.8,14.2,30.00,WSW,238,5.8,5.8,31,0.00,CLR,,0.00,WeatherDisplay:10.37,2013-01-05 17:24:00,
2013-01-05 12:29:00,43.0,14.4,30.00,WNW,302,5.8,5.8,31,0.00,CLR,,0.00,WeatherDisplay:10.37,2013-01-05 17:29:00,
2013-01-05 12:34:00,43.0,14.4,30.00,West,272,5.8,5.8,31,0.00,CLR,,0.00,WeatherDisplay:10.37,2013-01-05 17:34:00,
2013-01-05 12:39:00,43.2,14.5,30.00,WSW,242,5.8,5.8,31,0.00,CLR,,0.00,WeatherDisplay:10.37,2013-01-05 17:39:00,
2013-01-05 12:44:00,43.3,14.7,30.00,West,278,3.6,3.6,31,0.00,CLR,,0.00,WeatherDisplay:10.37,2013-01-05 17:44:00,
2013-01-05 12:49:00,43.3,14.7,30.00,WSW,253,15.0,15.0,31,0.00,CLR,,0.00,WeatherDisplay:10.37,2013-01-05 17:49:00,
2013-01-05 12:54:00,43.3,13.9,30.00,WSW,250,8.1,8.1,30,0.00,CLR,,0.00,WeatherDisplay:10.37,2013-01-05 17:54:00,
2013-01-05 12:59:00,43.5,14.1,30.00,West,260,8.1,8.1,30,0.00,CLR,,0.00,WeatherDisplay:10.37,2013-01-05 17:59:00,
2013-01-05 13:04:00,43.7,15.0,30.00,NW,309,5.8,8.0,31,0.00,CLR,,0.00,WeatherDisplay:10.37,2013-01-05 18:04:00,
2013-01-05 13:09:00,43.9,14.4,30.00,West,275,5.8,5.8,30,0.00,CLR,,0.00,WeatherDisplay:10.37,2013-01-05 18:09:00,
2013-01-05 13:14:00,44.8,14.4,30.00,West,261,10.4,10.4,29,0.00,CLR,,0.00,WeatherDisplay:10.37,2013-01-05 18:14:00,
2013-01-05 13:19:00,46.4,15.8,30.00,WNW,292,10.4,10.4,29,0.00,CLR,,0.00,WeatherDisplay:10.37,2013-01-05 18:19:00,
2013-01-05 13:24:00,48.0,16.4,30.00,NNW,339,9.2,9.2,28,0.00,CLR,,0.00,WeatherDisplay:10.37,2013-01-05 18:24:00,
2013-01-05 13:29:00,47.5,15.9,30.00,NW,304,8.1,8.1,28,0.00,CLR,,0.00,WeatherDisplay:10.37,2013-01-05 18:29:00,
2013-01-05 13:34:00,46.6,15.2,30.00,West,280,5.8,5.8,28,0.00,CLR,,0.00,WeatherDisplay:10.37,2013-01-05 18:34:00,
2013-01-05 13:39:00,45.3,14.1,30.00,SW,224,3.5,0.0,28,0.00,CLR,,0.00,WeatherDisplay:10.37,2013-01-05 18:39:00,
2013-01-05 13:44:00,44.6,13.5,30.00,NW,322,10.4,10.4,28,0.00,CLR,,0.00,WeatherDisplay:10.37,2013-01-05 18:44:00,
2013-01-05 13:49:00,43.9,13.6,30.00,West,274,6.9,6.9,29,0.00,CLR,,0.00,WeatherDisplay:10.37,2013-01-05 18:49:00,
2013-01-05 13:54:00,43.5,13.3,30.00,West,262,3.5,3.5,29,0.00,CLR,,0.00,WeatherDisplay:10.37,2013-01-05 18:54:00,
2013-01-05 13:59:00,43.3,13.2,30.00,NW,309,3.5,3.6,29,0.00,CLR,,0.00,WeatherDisplay:10.37,2013-01-05 18:59:00,
2013-01-05 14:04:00,43.3,13.2,30.00,WSW,254,3.5,3.5,29,0.00,CLR,,0.00,WeatherDisplay:10.37,2013-01-05 19:04:00,
2013-01-05 14:09:00,43.3,13.2,30.00,WNW,303,8.1,8.1,29,0.00,CLR,,0.00,WeatherDisplay:10.37,2013-01-05 19:09:00,
2013-01-05 14:14:00,43.2,13.0,30.00,West,265,5.8,5.8,29,0.00,CLR,,0.00,WeatherDisplay:10.37,2013-01-05 19:14:00,
2013-01-05 14:20:00,43.0,12.8,30.03,WNW,302,8.1,8.1,29,0.00,CLR,,0.00,WeatherDisplay:10.37,2013-01-05 19:20:00,
2013-01-05 14:25:00,42.8,12.7,30.03,WNW,303,3.6,3.6,29,0.00,CLR,,0.00,WeatherDisplay:10.37,2013-01-05 19:25:00,
2013-01-05 14:30:00,42.6,12.5,30.03,WNW,287,5.8,5.8,29,0.00,CLR,,0.00,WeatherDisplay:10.37,2013-01-05 19:30:00,
2013-01-05 14:35:00,42.6,12.5,30.03,WNW,293,9.2,9.2,29,0.00,CLR,,0.00,WeatherDisplay:10.37,2013-01-05 19:35:00,
2013-01-05 14:40:00,42.4,12.4,30.03,West,272,5.8,5.8,29,0.00,CLR,,0.00,WeatherDisplay:10.37,2013-01-05 19:40:00,
2013-01-05 14:45:00,42.4,12.4,30.03,NW,320,5.8,5.8,29,0.00,CLR,,0.00,WeatherDisplay:10.37,2013-01-05 19:45:00,
2013-01-05 14:50:00,42.4,12.4,30.03,NW,321,5.8,5.8,29,0.00,CLR,,0.00,WeatherDisplay:10.37,2013-01-05 19:50:00,
2013-01-05 14:55:00,42.4,12.4,30.03,West,279,8.1,0.0,29,0.00,CLR,,0.00,WeatherDisplay:10.37,2013-01-05 19:55:00,
2013-01-05 15:00:00,42.3,12.2,30.03,WNW,302,3.5,3.6,29,0.00,CLR,,0.00,WeatherDisplay:10.37,2013-01-05 20:00:00,
2013-01-05 15:05:00,42.1,12.1,30.03,NW,307,6.3,6.3,29,0.00,CLR,,0.00,WeatherDisplay:10.37,2013-01-05 20:05:00,
2013-01-05 15:10:00,41.7,11.7,30.03,NW,307,3.5,3.5,29,0.00,CLR,,0.00,WeatherDisplay:10.37,2013-01-05 20:10:00,
2013-01-05 15:15:00,41.7,11.7,30.03,WNW,284,3.5,3.6,29,0.00,CLR,,0.00,WeatherDisplay:10.37,2013-01-05 20:15:00,
2013-01-05 15:20:00,41.7,11.7,30.03,West,279,3.5,3.5,29,0.00,CLR,,0.00,WeatherDisplay:10.37,2013-01-05 20:20:00,
2013-01-05 15:25:00,41.5,11.6,30.03,WNW,283,5.8,5.8,29,0.00,CLR,,0.00,WeatherDisplay:10.37,2013-01-05 20:25:00,
2013-01-05 15:30:00,41.5,12.4,30.03,NW,310,3.5,3.5,30,0.00,CLR,,0.00,WeatherDisplay:10.37,2013-01-05 20:30:00,
2013-01-05 15:35:00,41.2,12.0,30.06,West,278,0.0,0.0,30,0.00,CLR,,0.00,WeatherDisplay:10.37,2013-01-05 20:35:00,
2013-01-05 15:40:00,41.0,11.9,30.06,West,279,3.5,3.5,30,0.00,CLR,,0.00,WeatherDisplay:10.37,2013-01-05 20:40:00,
2013-01-05 15:45:00,40.5,11.4,30.06,West,261,4.0,4.0,30,0.00,CLR,,0.00,WeatherDisplay:10.37,2013-01-05 20:45:00,
2013-01-05 15:50:00,40.3,11.3,30.06,West,277,5.8,5.8,30,0.00,CLR,,0.00,WeatherDisplay:10.37,2013-01-05 20:50:00,
2013-01-05 15:55:00,40.1,11.8,30.06,West,280,0.0,0.0,31,0.00,CLR,,0.00,WeatherDisplay:10.37,2013-01-05 20:55:00,
2013-01-05 16:00:00,39.7,11.5,30.06,WNW,294,0.0,0.0,31,0.00,CLR,,0.00,WeatherDisplay:10.37,2013-01-05 21:00:00,
2013-01-05 16:05:00,39.4,11.2,30.06,WNW,293,0.0,0.0,31,0.00,CLR,,0.00,WeatherDisplay:10.37,2013-01-05 21:05:00,
2013-01-05 16:10:00,38.8,11.4,30.06,WNW,293,0.0,0.0,32,0.00,CLR,,0.00,WeatherDisplay:10.37,2013-01-05 21:10:00,
2013-01-05 16:15:00,38.3,11.0,30.06,WNW,293,0.0,0.0,32,0.00,CLR,,0.00,WeatherDisplay:10.37,2013-01-05 21:15:00,
2013-01-05 16:20:00,37.8,11.2,30.06,WNW,293,0.0,0.0,33,0.00,CLR,,0.00,WeatherDisplay:10.37,2013-01-05 21:20:00,
2013-01-05 16:25:00,37.2,11.4,30.06,WNW,293,0.0,0.0,34,0.00,CLR,,0.00,WeatherDisplay:10.37,2013-01-05 21:25:00,
2013-01-05 16:30:00,36.7,10.9,30.06,WNW,293,0.0,0.0,34,0.00,CLR,,0.00,WeatherDisplay:10.37,2013-01-05 21:30:00,
2013-01-05 16:35:00,36.3,11.2,30.06,WNW,293,0.0,0.0,35,0.00,CLR,,0.00,WeatherDisplay:10.37,2013-01-05 21:35:00,
2013-01-05 16:40:00,35.8,13.2,30.06,WNW,293,0.0,0.0,39,0.00,CLR,,0.00,WeatherDisplay:10.37,2013-01-05 21:40:00,
2013-01-05 16:45:00,35.1,13.1,30.06,WNW,293,0.0,0.0,40,0.00,CLR,,0.00,WeatherDisplay:10.37,2013-01-05 21:45:00,
2013-01-05 16:50:00,34.5,12.6,30.06,WNW,293,0.0,0.0,40,0.00,CLR,,0.00,WeatherDisplay:10.37,2013-01-05 21:50:00,
2013-01-05 16:55:00,34.2,12.9,30.06,WNW,293,0.0,0.0,41,0.00,CLR,,0.00,WeatherDisplay:10.37,2013-01-05 21:55:00,
2013-01-05 17:00:00,33.8,12.6,30.06,WNW,293,0.0,0.0,41,0.00,CLR,,0.00,WeatherDisplay:10.37,2013-01-05 22:00:00,
2013-01-05 17:05:00,33.3,12.6,30.06,WNW,293,0.0,0.0,42,0.00,CLR,,0.00,WeatherDisplay:10.37,2013-01-05 22:05:00,
2013-01-05 17:10:00,32.9,12.3,30.06,WNW,293,0.0,0.0,42,0.00,CLR,,0.00,WeatherDisplay:10.37,2013-01-05 22:10:00,
2013-01-05 17:15:00,32.5,12.5,30.06,WNW,293,0.0,0.0,43,0.00,CLR,,0.00,WeatherDisplay:10.37,2013-01-05 22:15:00,
2013-01-05 17:20:00,32.4,12.8,30.09,WNW,293,0.0,0.0,44,0.00,CLR,,0.00,WeatherDisplay:10.37,2013-01-05 22:20:00,
2013-01-05 17:25:00,31.8,12.9,30.09,WNW,293,0.0,0.0,45,0.00,CLR,,0.00,WeatherDisplay:10.37,2013-01-05 22:25:00,
2013-01-05 17:30:00,31.5,12.5,30.09,WNW,293,0.0,0.0,45,0.00,CLR,,0.00,WeatherDisplay:10.37,2013-01-05 22:30:00,
2013-01-05 17:35:00,31.3,12.4,30.09,WNW,293,0.0,0.0,45,0.00,CLR,,0.00,WeatherDisplay:10.37,2013-01-05 22:35:00,
2013-01-05 17:40:00,31.3,13.4,30.09,WNW,293,0.0,0.0,47,0.00,CLR,,0.00,WeatherDisplay:10.37,2013-01-05 22:40:00,
2013-01-05 17:45:00,30.9,14.0,30.09,WNW,293,0.0,0.0,49,0.00,CLR,,0.00,WeatherDisplay:10.37,2013-01-05 22:45:00,
2013-01-05 17:50:00,30.6,13.2,30.09,WNW,293,0.0,0.0,48,0.00,CLR,,0.00,WeatherDisplay:10.37,2013-01-05 22:50:00,
2013-01-05 17:55:00,30.6,13.2,30.09,WNW,293,0.0,0.0,48,0.00,CLR,,0.00,WeatherDisplay:10.37,2013-01-05 22:55:00,
2013-01-05 18:00:00,30.6,13.6,30.09,WNW,293,0.0,0.0,49,0.00,CLR,,0.00,WeatherDisplay:10.37,2013-01-05 23:00:00,
2013-01-05 18:05:00,30.2,13.8,30.09,WNW,293,0.0,0.0,50,0.00,CLR,,0.00,WeatherDisplay:10.37,2013-01-05 23:05:00,
2013-01-05 18:10:00,30.0,13.6,30.09,WNW,293,0.0,0.0,50,0.00,CLR,,0.00,WeatherDisplay:10.37,2013-01-05 23:10:00,
2013-01-05 18:15:00,29.8,13.9,30.09,WNW,293,0.0,0.0,51,0.00,CLR,,0.00,WeatherDisplay:10.37,2013-01-05 23:15:00,
2013-01-05 18:20:00,29.7,13.7,30.09,WNW,293,0.0,0.0,51,0.00,CLR,,0.00,WeatherDisplay:10.37,2013-01-05 23:20:00,
2013-01-05 18:25:00,29.5,13.6,30.09,WNW,293,0.0,0.0,51,0.00,CLR,,0.00,WeatherDisplay:10.37,2013-01-05 23:25:00,
2013-01-05 18:30:00,29.5,13.6,30.09,WNW,293,0.0,0.0,51,0.00,CLR,,0.00,WeatherDisplay:10.37,2013-01-05 23:30:00,
2013-01-05 18:35:00,29.1,13.7,30.12,WNW,293,0.0,0.0,52,0.00,CLR,,0.00,WeatherDisplay:10.37,2013-01-05 23:35:00,
2013-01-05 18:40:00,28.9,13.5,30.12,WNW,293,0.0,0.0,52,0.00,CLR,,0.00,WeatherDisplay:10.37,2013-01-05 23:40:00,
2013-01-05 18:45:00,29.1,13.7,30.12,WNW,293,0.0,0.0,52,0.00,CLR,,0.00,WeatherDisplay:10.37,2013-01-05 23:45:00,
2013-01-05 18:50:00,28.9,13.9,30.12,WNW,293,0.0,0.0,53,0.00,CLR,,0.00,WeatherDisplay:10.37,2013-01-05 23:50:00,
2013-01-05 18:55:00,28.8,13.8,30.12,WNW,293,0.0,0.0,53,0.00,CLR,,0.00,WeatherDisplay:10.37,2013-01-05 23:55:00,
2013-01-05 19:00:00,28.6,13.6,30.12,WNW,293,0.0,0.0,53,0.00,CLR,,0.00,WeatherDisplay:10.37,2013-01-06 00:00:00,
2013-01-05 19:05:00,28.6,13.6,30.12,WNW,293,0.0,0.0,53,0.00,CLR,,0.00,WeatherDisplay:10.37,2013-01-06 00:05:00,
2013-01-05 19:10:00,28.2,13.7,30.12,WNW,293,0.0,0.0,54,0.00,CLR,,0.00,WeatherDisplay:10.37,2013-01-06 00:10:00,
2013-01-05 19:15:00,28.2,13.7,30.12,WNW,293,0.0,0.0,54,0.00,CLR,,0.00,WeatherDisplay:10.37,2013-01-06 00:15:00,
2013-01-05 19:20:00,28.2,13.7,30.12,WNW,293,0.0,0.0,54,0.00,CLR,,0.00,WeatherDisplay:10.37,2013-01-06 00:20:00,
2013-01-05 19:25:00,27.9,13.8,30.12,WNW,293,0.0,0.0,55,0.00,CLR,,0.00,WeatherDisplay:10.37,2013-01-06 00:25:00,
2013-01-05 19:30:00,27.9,13.8,30.12,WNW,293,0.0,0.0,55,0.00,CLR,,0.00,WeatherDisplay:10.37,2013-01-06 00:30:00,
2013-01-05 19:35:00,27.7,13.6,30.12,WNW,293,0.0,0.0,55,0.00,CLR,,0.00,WeatherDisplay:10.37,2013-01-06 00:35:00,
2013-01-05 19:40:00,27.5,13.4,30.12,WNW,293,0.0,0.0,55,0.00,CLR,,0.00,WeatherDisplay:10.37,2013-01-06 00:40:00,
2013-01-05 19:45:00,27.5,13.4,30.12,WNW,293,0.0,0.0,55,0.00,CLR,,0.00,WeatherDisplay:10.37,2013-01-06 00:45:00,
2013-01-05 19:50:00,27.3,13.3,30.12,WNW,293,0.0,0.0,55,0.00,CLR,,0.00,WeatherDisplay:10.37,2013-01-06 00:50:00,
2013-01-05 19:55:00,26.8,13.2,30.12,WNW,293,0.0,0.0,56,0.00,CLR,,0.00,WeatherDisplay:10.37,2013-01-06 00:55:00,
2013-01-05 20:00:00,26.8,13.2,30.12,WNW,293,0.0,0.0,56,0.00,CLR,,0.00,WeatherDisplay:10.37,2013-01-06 01:00:00,
2013-01-05 20:06:00,26.8,13.2,30.12,WNW,293,0.0,0.0,56,0.00,CLR,,0.00,WeatherDisplay:10.37,2013-01-06 01:06:00,
2013-01-05 20:11:00,27.0,13.7,30.12,WNW,293,0.0,0.0,57,0.00,CLR,,0.00,WeatherDisplay:10.37,2013-01-06 01:11:00,
2013-01-05 20:16:00,27.0,13.7,30.12,WNW,293,0.0,0.0,57,0.00,CLR,,0.00,WeatherDisplay:10.37,2013-01-06 01:16:00,
2013-01-05 20:21:00,26.2,13.8,30.12,WNW,293,0.0,0.0,59,0.00,CLR,,0.00,WeatherDisplay:10.37,2013-01-06 01:21:00,
2013-01-05 20:26:00,26.1,13.7,30.12,WNW,293,0.0,0.0,59,0.00,CLR,,0.00,WeatherDisplay:10.37,2013-01-06 01:26:00,
2013-01-05 20:31:00,26.2,13.8,30.12,WNW,293,0.0,0.0,59,0.00,CLR,,0.00,WeatherDisplay:10.37,2013-01-06 01:31:00,
2013-01-05 20:36:00,26.1,13.7,30.12,WNW,293,0.0,0.0,59,0.00,CLR,,0.00,WeatherDisplay:10.37,2013-01-06 01:36:00,
2013-01-05 20:41:00,25.7,13.7,30.12,WNW,293,0.0,0.0,60,0.00,CLR,,0.00,WeatherDisplay:10.37,2013-01-06 01:41:00,
2013-01-05 20:46:00,25.3,13.8,30.12,WNW,293,0.0,0.0,61,0.00,CLR,,0.00,WeatherDisplay:10.37,2013-01-06 01:46:00,
2013-01-05 20:51:00,25.3,13.8,30.12,WNW,293,0.0,0.0,61,0.00,CLR,,0.00,WeatherDisplay:10.37,2013-01-06 01:51:00,
2013-01-05 20:56:00,25.3,14.1,30.12,WNW,293,0.0,0.0,62,0.00,CLR,,0.00,WeatherDisplay:10.37,2013-01-06 01:56:00,
2013-01-05 21:01:00,25.0,13.8,30.12,WNW,293,0.0,0.0,62,0.00,CLR,,0.00,WeatherDisplay:10.37,2013-01-06 02:01:00,
2013-01-05 21:06:00,25.0,13.8,30.09,WNW,293,0.0,0.0,62,0.00,CLR,,0.00,WeatherDisplay:10.37,2013-01-06 02:06:00,
2013-01-05 21:11:00,25.2,14.0,30.09,WNW,293,0.0,0.0,62,0.00,CLR,,0.00,WeatherDisplay:10.37,2013-01-06 02:11:00,
2013-01-05 21:16:00,25.0,14.2,30.09,WNW,293,0.0,0.0,63,0.00,CLR,,0.00,WeatherDisplay:10.37,2013-01-06 02:16:00,
2013-01-05 21:21:00,24.8,14.0,30.12,WNW,293,0.0,0.0,63,0.00,CLR,,0.00,WeatherDisplay:10.37,2013-01-06 02:21:00,
2013-01-05 21:26:00,24.8,14.0,30.12,WNW,293,0.0,0.0,63,0.00,CLR,,0.00,WeatherDisplay:10.37,2013-01-06 02:26:00,
2013-01-05 21:31:00,24.6,13.8,30.12,WNW,293,0.0,0.0,63,0.00,CLR,,0.00,WeatherDisplay:10.37,2013-01-06 02:31:00,
2013-01-05 21:36:00,24.8,14.0,30.12,WNW,293,0.0,0.0,63,0.00,CLR,,0.00,WeatherDisplay:10.37,2013-01-06 02:36:00,
2013-01-05 21:41:00,24.6,14.2,30.12,WNW,293,0.0,0.0,64,0.00,CLR,,0.00,WeatherDisplay:10.37,2013-01-06 02:41:00,
2013-01-05 21:46:00,24.4,14.0,30.12,WNW,293,0.0,0.0,64,0.00,CLR,,0.00,WeatherDisplay:10.37,2013-01-06 02:46:00,
2013-01-05 21:51:00,24.3,13.8,30.12,WNW,293,0.0,0.0,64,0.00,CLR,,0.00,WeatherDisplay:10.37,2013-01-06 02:51:00,
2013-01-05 21:56:00,23.9,13.5,30.12,WNW,293,0.0,0.0,64,0.00,CLR,,0.00,WeatherDisplay:10.37,2013-01-06 02:56:00,
2013-01-05 22:01:00,23.7,13.3,30.12,WNW,293,0.0,0.0,64,0.00,CLR,,0.00,WeatherDisplay:10.37,2013-01-06 03:01:00,
2013-01-05 22:06:00,23.7,13.3,30.12,WNW,293,0.0,0.0,64,0.00,CLR,,0.00,WeatherDisplay:10.37,2013-01-06 03:06:00,
2013-01-05 22:11:00,23.7,13.7,30.12,WNW,293,0.0,0.0,65,0.00,CLR,,0.00,WeatherDisplay:10.37,2013-01-06 03:11:00,
2013-01-05 22:16:00,23.5,13.1,30.12,WNW,293,0.0,0.0,64,0.00,CLR,,0.00,WeatherDisplay:10.37,2013-01-06 03:16:00,
2013-01-05 22:21:00,23.4,13.0,30.12,WNW,293,0.0,0.0,64,0.00,CLR,,0.00,WeatherDisplay:10.37,2013-01-06 03:21:00,
2013-01-05 22:26:00,23.2,13.1,30.12,WNW,293,0.0,0.0,65,0.00,CLR,,0.00,WeatherDisplay:10.37,2013-01-06 03:26:00,
2013-01-05 22:31:00,23.2,13.1,30.12,WNW,293,0.0,0.0,65,0.00,CLR,,0.00,WeatherDisplay:10.37,2013-01-06 03:31:00,
2013-01-05 22:36:00,23.0,13.0,30.12,WNW,293,0.0,0.0,65,0.00,CLR,,0.00,WeatherDisplay:10.37,2013-01-06 03:36:00,
2013-01-05 22:41:00,23.0,13.0,30.12,WNW,293,0.0,0.0,65,0.00,CLR,,0.00,WeatherDisplay:10.37,2013-01-06 03:41:00,
2013-01-05 22:46:00,22.8,12.8,30.12,WNW,293,0.0,0.0,65,0.00,CLR,,0.00,WeatherDisplay:10.37,2013-01-06 03:46:00,
2013-01-05 22:51:00,22.8,12.8,30.12,WNW,293,0.0,0.0,65,0.00,CLR,,0.00,WeatherDisplay:10.37,2013-01-06 03:51:00,
2013-01-05 22:56:00,22.8,12.8,30.12,WNW,293,0.0,0.0,65,0.00,CLR,,0.00,WeatherDisplay:10.37,2013-01-06 03:56:00,
2013-01-05 23:01:00,22.6,12.6,30.12,WNW,293,0.0,0.0,65,0.00,CLR,,0.00,WeatherDisplay:10.37,2013-01-06 04:01:00,
2013-01-05 23:06:00,22.5,12.8,30.12,WNW,293,0.0,0.0,66,0.00,CLR,,0.00,WeatherDisplay:10.37,2013-01-06 04:06:00,
2013-01-05 23:11:00,22.5,12.8,30.12,WNW,293,0.0,0.0,66,0.00,CLR,,0.00,WeatherDisplay:10.37,2013-01-06 04:11:00,
2013-01-05 23:16:00,22.3,12.6,30.12,WNW,293,0.0,0.0,66,0.00,CLR,,0.00,WeatherDisplay:10.37,2013-01-06 04:16:00,
2013-01-05 23:21:00,22.3,12.6,30.09,WNW,293,0.0,0.0,66,0.00,CLR,,0.00,WeatherDisplay:10.37,2013-01-06 04:21:00,
2013-01-05 23:26:00,22.1,12.8,30.09,WNW,293,0.0,0.0,67,0.00,CLR,,0.00,WeatherDisplay:10.37,2013-01-06 04:26:00,
2013-01-05 23:31:00,22.3,13.0,30.09,WNW,293,0.0,0.0,67,0.00,CLR,,0.00,WeatherDisplay:10.37,2013-01-06 04:31:00,
2013-01-05 23:36:00,22.3,13.0,30.09,WNW,293,0.0,0.0,67,0.00,CLR,,0.00,WeatherDisplay:10.37,2013-01-06 04:36:00,
2013-01-05 23:41:00,22.3,13.0,30.09,WNW,293,0.0,0.0,67,0.00,CLR,,0.00,WeatherDisplay:10.37,2013-01-06 04:41:00,
2013-01-05 23:46:00,22.5,13.2,30.09,WNW,293,0.0,0.0,67,0.00,CLR,,0.00,WeatherDisplay:10.37,2013-01-06 04:46:00,
2013-01-05 23:51:00,22.5,13.2,30.09,WNW,293,0.0,0.0,67,0.00,CLR,,0.00,WeatherDisplay:10.37,2013-01-06 04:51:00,
2013-01-05 23:56:00,22.3,13.0,30.09,WNW,293,0.0,0.0,67,0.00,CLR,,0.00,WeatherDisplay:10.37,2013-01-06 04:56:00,